DJ2RF Weather Reports


time (UTC)temp
F
wind
direction
speed
knots
gust
knots
rain 1hr
in
rain 24hr
in
rain mn
in
humidity
%
barometer
mb
20260504081535 65 360 0.0 0.0 0.00 0.00 0.00 50 1016.9
20260504080634 65 360 0.0 0.0 0.00 0.00 0.00 52 1016.9
20260504070305 60 360 0.0 0.0 0.00 0.00 0.00 59 1017.0
20260504060118 57 360 0.0 0.0 0.00 0.00 0.00 64 1016.9
20260504050610 56 360 0.0 0.0 0.00 0.00 0.00 64 1016.8
20260504045630 56 360 0.0 0.0 0.00 0.00 0.00 63 1016.8
20260504044706 55 360 0.0 0.0 0.00 0.00 0.00 63 1016.9
20260504043756 55 360 0.0 0.0 0.00 0.00 0.00 64 1016.9
20260504042930 56 360 0.0 0.0 0.00 0.00 0.00 63 1016.8
20260504042101 56 360 0.0 0.0 0.00 0.00 0.00 62 1016.8
20260504041221 56 360 0.0 0.0 0.00 0.00 0.00 62 1016.8
20260504040236 56 360 0.0 0.0 0.00 0.00 0.00 63 1016.9
20260504035326 56 360 0.0 0.0 0.00 0.00 0.00 63 1016.8
20260504034456 56 360 0.0 0.0 0.00 0.00 0.00 62 1016.9
20260504033636 56 360 0.0 0.0 0.00 0.00 0.00 61 1016.9
20260504032710 56 360 0.0 0.0 0.00 0.00 0.00 62 1016.9
20260504031801 56 360 0.0 0.0 0.00 0.00 0.00 62 1017.0
20260504030950 55 360 0.0 0.0 0.00 0.00 0.00 63 1017.1
20260504030006 55 360 0.0 0.0 0.00 0.00 0.00 63 1017.2
20260504025201 55 360 0.0 0.0 0.00 0.00 0.00 62 1017.2
20260504024246 56 360 0.0 0.0 0.00 0.00 0.00 61 1017.1
20260504023436 56 360 0.0 0.0 0.00 0.00 0.00 60 1017.1
20260504022626 56 360 0.0 0.0 0.00 0.00 0.00 60 1017.1
20260504021641 57 360 0.0 0.0 0.00 0.00 0.00 60 1017.0
20260504020646 57 360 0.0 0.0 0.00 0.00 0.00 60 1016.9
20260504015836 57 360 0.0 0.0 0.00 0.00 0.00 59 1017.0
20260504014941 57 360 0.0 0.0 0.00 0.00 0.00 60 1016.8
20260504014011 57 360 0.0 0.0 0.00 0.00 0.00 61 1016.8
20260504013058 58 360 0.0 0.0 0.00 0.00 0.00 60 1016.8
20260504012236 58 360 0.0 0.0 0.00 0.00 0.00 57 1016.8
20260504011241 59 360 0.0 0.0 0.00 0.00 0.00 56 1017.0
20260504010421 59 360 0.0 0.0 0.00 0.00 0.00 55 1017.0
20260504005526 59 360 0.0 0.0 0.00 0.00 0.00 55 1017.0
20260504004548 59 360 0.0 0.0 0.00 0.00 0.00 55 1017.2
20260504003726 60 360 0.0 0.0 0.00 0.00 0.00 54 1017.3
20260504002921 60 360 0.0 0.0 0.00 0.00 0.00 54 1017.1
20260504002106 60 360 0.0 0.0 0.00 0.00 0.00 52 1016.8
20260504001206 60 360 0.0 0.0 0.00 0.00 0.00 52 1016.6
20260504000356 60 360 0.0 0.0 0.00 0.00 0.00 54 1016.7
20260503235456 61 360 0.0 0.0 0.00 0.00 0.00 52 1016.8
20260503234641 61 360 0.0 0.0 0.00 0.00 0.00 51 1016.8
20260503233721 61 360 0.0 0.0 0.00 0.00 0.00 51 1016.5
20260503232746 61 360 0.0 0.0 0.00 0.00 0.00 51 1016.4
20260503231941 61 360 0.0 0.0 0.00 0.00 0.00 51 1016.5
20260503231121 61 360 0.0 0.0 0.00 0.00 0.00 50 1016.3
20260503230128 61 360 0.0 0.0 0.00 0.00 0.00 51 1016.3
20260503225316 62 360 0.0 0.0 0.00 0.00 0.00 51 1016.2
20260503224321 62 360 0.0 0.0 0.00 0.00 0.00 51 1016.2
20260503223406 62 360 0.0 0.0 0.00 0.00 0.00 51 1016.0
20260503222546 63 360 0.0 0.0 0.00 0.00 0.00 51 1016.1
20260503221653 63 360 0.0 0.0 0.00 0.00 0.00 50 1016.0
20260503220816 63 360 0.0 0.0 0.00 0.00 0.00 53 1015.9
20260503215856 64 360 0.0 0.0 0.00 0.00 0.00 55 1015.7
20260503214926 65 360 0.0 0.0 0.00 0.00 0.00 55 1015.6
20260503214026 65 360 0.0 0.0 0.00 0.00 0.00 55 1015.5
20260503213226 65 360 0.0 0.0 0.00 0.00 0.00 54 1015.5
20260503212336 65 360 0.0 0.0 0.00 0.00 0.00 55 1015.1
20260503211426 64 360 0.0 0.0 0.00 0.00 0.00 60 1015.1
20260503210541 65 360 0.0 0.0 0.00 0.00 0.00 58 1015.1
20260503205701 65 360 0.0 0.0 0.00 0.00 0.00 58 1014.8
20260503204706 65 360 0.0 0.0 0.00 0.00 0.00 57 1014.9
20260503203801 65 360 0.0 0.0 0.00 0.00 0.00 58 1014.8
20260503202841 65 360 0.0 0.0 0.00 0.00 0.00 57 1014.9
20260503202026 65 360 0.0 0.0 0.00 0.00 0.00 57 1014.8
20260503201115 64 360 0.0 0.0 0.00 0.00 0.00 58 1014.9
20260503200306 64 360 0.0 0.0 0.00 0.00 0.00 61 1014.7
20260503195356 64 360 0.0 0.0 0.00 0.00 0.00 62 1014.8
20260503194501 64 360 0.0 0.0 0.00 0.00 0.00 61 1014.6
20260503193545 64 360 0.0 0.0 0.00 0.00 0.00 61 1014.6
20260503192656 65 360 0.0 0.0 0.00 0.00 0.00 61 1014.4
20260503191736 65 360 0.0 0.0 0.00 0.00 0.00 58 1014.2
20260503190828 66 360 0.0 0.0 0.00 0.00 0.00 55 1014.2
20260503190008 67 360 0.0 0.0 0.00 0.00 0.00 53 1014.1
20260503185045 67 360 0.0 0.0 0.00 0.00 0.00 47 1014.0
20260503184244 67 360 0.0 0.0 0.00 0.00 0.00 48 1014.0
20260503183346 67 360 0.0 0.0 0.00 0.00 0.00 51 1013.8
20260503182441 68 360 0.0 0.0 0.00 0.00 0.00 49 1013.7
20260503181521 68 360 0.0 0.0 0.00 0.00 0.00 49 1013.7
20260503180541 70 360 0.0 0.0 0.00 0.00 0.00 47 1013.7
20260503175708 70 360 0.0 0.0 0.00 0.00 0.00 45 1013.8
20260503174856 71 360 0.0 0.0 0.00 0.00 0.00 45 1013.6
20260503174014 72 360 0.0 0.0 0.00 0.00 0.00 44 1013.7
20260503173021 72 360 0.0 0.0 0.00 0.00 0.00 42 1013.7
20260503172136 73 360 0.0 0.0 0.00 0.00 0.00 40 1013.7
20260503171151 73 360 0.0 0.0 0.00 0.00 0.00 39 1013.6
20260503170321 73 360 0.0 0.0 0.00 0.00 0.00 39 1013.6
20260503150326 78 360 0.0 0.0 0.00 0.00 0.00 38 1013.6